Location: Butler
(32.5575°N, 84.2380°W)
Time: 02:17:55
(UTC+00:00)

X-37B - Visible Passes

Search period start: 07 December 2021 00:00
Search period end: 17 December 2021 00:00
Orbit: 330 x 341 km, 45.0° (Epoch: 20 November)

Date Brightness Start Highest point End Pass type
(mag) Time Alt. Az. Time Alt. Az. Time Alt. Az.
07 Dec 3.6 00:34:32 10° NW 00:34:38 10° NW 00:34:38 10° NW visible
07 Dec 1.8 23:18:20 10° W 23:20:54 29° NNW 23:23:02 13° NNE visible
08 Dec 2.8 23:39:56 10° NW 23:41:36 14° NNW 23:42:38 12° N visible
16 Dec 2.7 23:15:12 10° N 23:16:12 11° NNE 23:17:08 10° NE visible
